Regional Weather Roundup
Issued by NWS

Home | Current Version | Previous Version | Graphics & Text | Print | Product List | Glossary On
Versions: 1 2 3 4 5 6 7 8 9 10 11 12 13 14 15 16 17 18 19 20 21 22 23 24 25 26 27 28 29 30 31 32 33 34 35 36 37 38 39 40 41 42 43 44 45 46 47 48 49 50
000
ASUS43 KMPX 280201
RWRMN
WEATHER ROUNDUP FOR MINNESOTA
NATIONAL WEATHER SERVICE TWIN CITIES/CHANHASSEN MN
900 PM CDT WED AUG 27 2014


NOTE: "FAIR" INDICATES FEW OR NO CLOUDS BELOW 12,000 FEET WITH NO
SIGNIFICANT WEATHER AND/OR OBSTRUCTIONS TO VISIBILITY. N/A MEANS
CURRENT SKY AND/OR WEATHER CONDITIONS ARE NOT AVAILABLE.

MNZ060>063-068>070-280300-
   Twin Cities Metro

CITY           SKY/WX    TMP DP  RH WIND       PRES   REMARKS
TWIN CITIES    PTCLDY    71  57  61 E9        30.12R
ST PAUL        PTCLDY    69  58  67 NE3       30.12S
CRYSTAL        PTCLDY    69  57  65 CALM      30.11R
BLAINE         MOCLDY    66  61  82 NE5       30.13R
LAKEVILLE      CLEAR     64  57  77 CALM      30.12S
EDEN PRAIRIE   PTCLDY    69  58  67 SE3       30.11R
SOUTH ST PAUL  PTCLDY    70  57  63 CALM      30.12R
LAKE ELMO      FAIR      66  59  77 NE3       30.13S
$$
MNZ001>005-007-008-013>017-022>024-027-028-280300-
   Northwest Minnesota

CITY           SKY/WX    TMP DP  RH WIND       PRES   REMARKS
BEMIDJI        CLEAR     61  54  78 CALM      30.12R
HALLOCK        CLEAR     61  55  82 SE8       30.06S
ROSEAU         CLEAR     61  54  77 SE3       30.09F
WARROAD        CLEAR     57  52  82 SE5       30.11S
THIEF RVR FALL CLEAR     63  54  72 SE3       30.09S
CROOKSTON      CLEAR     63  57  82 SE6       30.08S
FOSSTON        MOCLDY    59  54  82 CALM      30.11S
DETROIT LAKES  CLEAR     64  59  82 SE3       30.13R
MOORHEAD       CLEAR     66  63  88 SE6       30.09S
PARK RAPIDS    CLEAR     64  58  80 SE5       30.13R
MAHNOMEN       FAIR      63  57  80 S5        30.10F
$$
MNZ006-009>011-018-025>026-280300-
   North Central Minnesota

CITY           SKY/WX    TMP DP  RH WIND       PRES   REMARKS
BAUDETTE       CLEAR     57  53  86 CALM      30.11R
FLAG ISLAND    CLEAR     64  52  63 SE5       30.09S
INTL FALLS     CLEAR     52  50  93 CALM      30.11S
WASKISH        CLEAR     55  54  94 CALM      30.11S
BIG FORK       CLEAR     55  54  94 CALM      30.14R
LONGVILLE      CLEAR     57  55  94 CALM      30.13R
GRAND RAPIDS   CLEAR     57  54  88 S3        30.14R
CRANE LAKE     CLEAR     52  50  93 CALM      30.15R
ORR            CLEAR     55  52  88 CALM      30.11S
COOK           CLEAR     54  52  94 CALM      30.14S
WALKER         FAIR      59  57  94 CALM      30.12S
$$
MNZ012-019>021-037-280300-
   Northeast Minnesota

CITY           SKY/WX    TMP DP  RH WIND       PRES   REMARKS
DULUTH         PTCLDY    61  53  75 E3        30.14R
ELY            CLEAR     54  48  82 CALM      30.14R
HIBBING        MOCLDY    55  52  89 CALM      30.14R
EVELETH        CLEAR     54  50  87 CALM      30.15S
DULUTH HARBOR  CLEAR     64  59  82 CALM      30.13S
TWO HARBORS    PTCLDY    55  52  88 CALM      30.12S
SILVER BAY     CLEAR     52  52 100 N3        30.13S
GRAND MARAIS     N/A     53  49  86 NW3       30.15R
G MARAIS ARPRT CLEAR     48  45  87 SW3       30.18R
$$
MNZ029>031-032-039>041-046>048-054>057-064-280300-
   West Central Minnesota

CITY           SKY/WX    TMP DP  RH WIND       PRES   REMARKS
FERGUS FALLS   MOCLDY    68  55  64 SE3       30.10R
WHEATON        PTCLDY    63  59  88 E5        30.11R
MORRIS         MOCLDY    68  61  77 SE6       30.10R
ALEXANDRIA     MOCLDY    67  59  75 E6        30.14R
ELBOW LAKE     CLOUDY    67  60  77 SE5       30.11R
WADENA         CLEAR     63  57  82 CALM      30.12S
GLENWOOD       PTCLDY    64  61  88 E3        30.13R
APPLETON       CLEAR     66  61  82 E3        30.09S
BENSON         MOCLDY    70  61  73 SE5       30.11R
ORTONVILLE     CLOUDY    68  61  77 E6        30.08S
MADISON        MOCLDY    70  63  78 E6        30.09S
WILLMAR        CLOUDY    66  61  82 CALM      30.13R
$$
MNZ033>034-036-042>043-049>051-058-059-280300-
   Central Minnesota

CITY           SKY/WX    TMP DP  RH WIND       PRES   REMARKS
ST CLOUD       PTCLDY    66  58  75 E3        30.12S
SAUK CENTRE    FAIR      65  59  82 E7        30.12S
PAYNESVILLE    CLEAR     65  57  77 NE5       30.12S
AITKIN         CLEAR     57  52  82 CALM      30.13R
PINE RIVER     CLEAR     57  57 100 CALM      30.17R
BRAINERD       PTCLDY    59  58  96 CALM      30.14R
STAPLES        CLEAR     63  59  88 CALM      30.13S
LONG PRAIRIE   FAIR      61  59  94 NE5       30.14R
LITTLE FALLS   PTCLDY    61  57  88 E3        30.14R
LITCHFIELD     CLEAR     66  63  88 E3        30.12S
BUFFALO        CLEAR     65  58  76 NE3       30.13S
MAPLE LAKE     CLEAR     66  60  81 NE3       30.14R
$$
MNZ037-044-045-052-053-280300-
   East Central Minnesota

CITY           SKY/WX    TMP DP  RH WIND       PRES   REMARKS
PRINCETON      CLEAR     64  57  77 NE2       30.13S
MORA           CLEAR     55  54  94 CALM      30.16S
CAMBRIDGE      PTCLDY    66  55  68 CALM      30.12S
RUSH CITY      CLEAR     58  56  92 CALM      30.14S
MOOSE LAKE     CLEAR     55  55 100 CALM      30.13R
HINCKLEY       FAIR      57  55  94 CALM      30.14S
CLOQUET        CLEAR     57  55  94 CALM      30.14S
MCGREGOR       CLEAR     59  55  88 CALM      30.15R
$$
MNZ071>073-080-081-089-090-097-098-280300-
   Southwest Minnesota

CITY           SKY/WX    TMP DP  RH WIND       PRES   REMARKS
MONTEVIDEO     PTCLDY    64  61  88 S3        30.11R
GRANITE FALLS  PTCLDY    68  58  72 E6        30.11S
CANBY          CLOUDY    68  62  79 SE5       30.10R
MARSHALL       CLOUDY    70  57  64 SE12      30.09S
REDWOOD FALLS  CLEAR     66  59  78 S7        30.11R
OLIVIA         CLOUDY    70  59  68 S3        30.11S
PIPESTONE      PTCLDY    68  63  83 SE3       30.10S
WINDOM         CLOUDY    64  61  88 E3        30.13R
WORTHINGTON    PTCLDY    64  63  94 E6        30.12S
JACKSON        PTCLDY    64  61  88 E6        30.12S
TRACY          PTCLDY    67  63  86 SE6       30.11S
SLAYTON        PTCLDY    65  63  93 CALM      30.12S
$$
MNZ065>067-074>077-082>085-091>093-280300-
   South Central Minnesota

CITY           SKY/WX    TMP DP  RH WIND       PRES   REMARKS
MANKATO        CLEAR     66  55  68 SE5       30.12R
NEW ULM        CLEAR     66  61  82 CALM      30.12R
ST JAMES       CLEAR     64  61  88 CALM      30.13R
FAIRMONT       CLEAR     63  55  77 E3        30.12R
GLENCOE        CLEAR     66  58  75 CALM      30.12R
FARIBAULT      CLEAR     64  57  77 CALM      30.12S
OWATONNA       CLEAR     64  59  82 E3        30.13R
WASECA         CLEAR     61  54  77 E3        30.14R
ALBERT LEA     CLEAR     66  59  77 E3        30.13R
$$
MNZ078>079-086>088-094>096-280300-
   Southeast Minnesota

CITY           SKY/WX    TMP DP  RH WIND       PRES   REMARKS
ROCHESTER      CLEAR     64  58  80 E3        30.14R
RED WING       PTCLDY    66  61  82 CALM      30.11S
STANTON        CLEAR     65  60  84 CALM      30.11S
DODGE CENTER   CLEAR     63  59  88 E3        30.13S
WINONA         CLEAR     68  63  83 CALM      30.12S
AUSTIN         CLEAR     63  59  88 CALM      30.13R
PRESTON        CLEAR     66  62  86 CALM      30.14S
$$
ABBREVIATIONS USED IN REMARKS
   TC - TEMPERATURES IN CELSIUS
  WCI - WIND CHILL INDEX
   HX - HEAT INDEX
  VSB - VISIBILITY
$$


USA.gov is the U.S. government's official web portal to all federal, state and local government web resources and services.